Weather History for KTRM - June, 2013

Change the Weather History Date:

Thursday, June 20, 2013

  Actual Average Record
Temperature  
Mean Temperature 90 °F 86 °F  
Max Temperature 102 °F 104 °F 118 °F (2008)
Min Temperature 77 °F 68 °F 56 °F (1975)
Degree Days  
Heating Degree Days 0 0  
Month to date heating degree days 0 0  
Since 1 June heating degree days 0 0  
Since 1 July heating degree days 1124 1181  
Cooling Degree Days 25 21  
Month to date cooling degree days 450 381  
Year to date cooling degree days 1357 1054  
Since 1 June cooling degree days 450 381  
Growing Degree Days 40 (Base 50)    
Moisture  
Dew Point 42 °F    
Average Humidity 22    
Maximum Humidity 37    
Minimum Humidity 6    
Precipitation  
Precipitation 0.00 in 0.00 in 0.00 in (2015)
Month to date precipitation 0.00 0.01  
Year to date precipitation 0.44 1.81  
Since 1 July precipitation 2.62  
Snow  
Snow 0.00 in - - ()
Month to date snowfall 0.0  
Year to date snowfall 0.0  
Since 1 June snowfall  
Since 1 July snowfall 0.0  
Snow Depth 0.00 in    
Sea Level Pressure  
Sea Level Pressure 29.65 in    
Wind  
Wind Speed 8 mph (NW)    
Max Wind Speed 23 mph    
Max Gust Speed 32 mph    
Visibility 10 miles    
Events      
T = Trace of Precipitation, MM = Missing Value Source: NWS Daily Summary

Daily Weather History Graph

Daily Weather History Graph

Search for Another Location

Airport or City:

Trip Planner

Search our weather history database for the weather conditions in past years. The results will help you decide how hot, cold, wet, or windy it might be!

Date:

Astronomy

Jun. 20, 2013 Rise Set
Actual Time 5:34 AM PDT 7:57 PM PDT
Civil Twilight 5:05 AM PDT 8:27 PM PDT
Nautical Twilight 4:29 AM PDT 9:02 PM PDT
Astronomical Twilight 3:50 AM PDT 9:41 PM PDT
Moon 5:09 PM PDT (6/20) 2:58 AM PDT (6/20)
Length of Visible Light 15h 21m
Length of Day
14h 23m
Waxing Gibbous, 89% of the Moon is Illuminated
Jun 20
Waxing Gibbous
Jun 23
Full
Jun 29
Last Quarter
Jul 8
New
Jul 15
First Quarter

Hourly Weather History & Observations

Time (PDT) Temp. Dew Point Humidity Pressure Visibility Wind Dir Wind Speed Gust Speed Precip Events Conditions
12:52 AM 84.0 °F 48.0 °F 28% 29.62 in 10.0 mi NNW 17.3 mph 26.5 mph N/A   Clear
1:52 AM 82.9 °F 46.0 °F 27% 29.61 in 10.0 mi NW 13.8 mph 21.9 mph N/A   Clear
2:52 AM 80.1 °F 48.0 °F 32% 29.62 in 10.0 mi WNW 10.4 mph - N/A   Clear
3:52 AM 80.1 °F 48.0 °F 32% 29.62 in 10.0 mi WNW 11.5 mph - N/A   Clear
4:52 AM 79.0 °F 48.0 °F 34% 29.62 in 10.0 mi WNW 13.8 mph - N/A   Clear
5:52 AM 79.0 °F 46.9 °F 32% 29.65 in 10.0 mi NW 10.4 mph - N/A   Clear
6:52 AM 79.0 °F 50.0 °F 36% 29.68 in 10.0 mi Calm Calm - N/A   Clear
7:52 AM 82.9 °F 48.9 °F 31% 29.70 in 10.0 mi West 5.8 mph - N/A   Clear
8:52 AM 84.9 °F 50.0 °F 30% 29.71 in 10.0 mi Calm Calm - N/A   Clear
9:52 AM 91.0 °F 46.9 °F 22% 29.71 in 10.0 mi Calm Calm - N/A   Clear
10:52 AM 93.0 °F 41.0 °F 16% 29.71 in 10.0 mi SE 5.8 mph - N/A   Clear
11:52 AM 96.1 °F 41.0 °F 15% 29.71 in 10.0 mi ESE 9.2 mph - N/A   Clear
12:52 PM 97.0 °F 35.1 °F 11% 29.70 in 10.0 mi SE 9.2 mph 17.3 mph N/A   Clear
1:52 PM 98.1 °F 36.0 °F 11% 29.68 in 10.0 mi East 8.1 mph - N/A   Clear
2:52 PM 100.9 °F 27.0 °F 7% 29.65 in 10.0 mi SE 6.9 mph - N/A   Clear
3:52 PM 100.9 °F 32.0 °F 9% 29.64 in 10.0 mi SE 6.9 mph - N/A   Clear
4:52 PM 102.0 °F 21.0 °F 6% 29.62 in 10.0 mi Variable 3.5 mph - N/A   Clear
5:52 PM 100.9 °F 27.0 °F 7% 29.61 in 10.0 mi SE 3.5 mph - N/A   Clear
6:52 PM 99.0 °F 36.0 °F 11% 29.61 in 10.0 mi South 4.6 mph - N/A   Clear
7:52 PM 88.0 °F 46.9 °F 24% 29.62 in 10.0 mi NW 8.1 mph - N/A   Clear
8:52 PM 91.0 °F 45.0 °F 20% 29.63 in 10.0 mi NNW 15.0 mph 20.7 mph N/A   Clear
9:52 PM 88.0 °F 43.0 °F 21% 29.65 in 10.0 mi NNW 18.4 mph 25.3 mph N/A   Clear
10:52 PM 86.0 °F 44.1 °F 23% 29.67 in 10.0 mi NNW 16.1 mph 24.2 mph N/A   Clear
11:52 PM 84.0 °F 46.9 °F 27% 29.67 in 10.0 mi NNW 15.0 mph 20.7 mph N/A   Clear